Location: Demre
(36.2444°N, 29.9850°E)
Time: 11:31:57
(UTC+00:00)

Cosmos 2151 - Pass Details

Date: 11 March 2026
Orbit: 558 x 574 km, 82.5° (Epoch: 11 April)

Event Time Altitude Azimuth Distance (km) Brightness Sun altitude
Rises 16:29:57 0° 188° (S) 2,733 6.5 -6.1°
Reaches altitude 10° 16:32:07 10° 190° (S) 1,840 5.6 -6.5°
Maximum altitude 16:36:10 79° 276° (W) 574 3.0 -7.3°
Drops below altitude 10° 16:40:15 10° 4° (N) 1,850 5.5 -8.2°
Sets 16:42:26 0° 6° (N) 2,750 6.4 -8.6°
